Tracking 19795 objects as of 18-Jul-2019
HD Live streaming from Space Station
objects crossing your sky now

COSMOS 451

Track COSMOS 451 now!
10-day predictions
COSMOS 451 is classified as:


NORAD ID: 5554
Int'l Code: 1971-086H
Perigee: 1,496.0 km
Apogee: 1,580.2 km
Inclination: 74.0 °
Period: 116.7 minutes
Semi major axis: 7909 km
RCS: 0.7471 m2 (medium)
Launch date: October 13, 1971
Source: Commonwealth of Independent States (former USSR) (CIS)
Launch site: PLESETSK MISSILE AND SPACE COMPLEX (PKMTR)
aabbcc
Your satellite tracking list
Your tracking list is empty




NASA's NSSDC Master Catalog

Two Line Element Set (TLE):
1  5554U 71086H   19198.85797189 -.00000007 +00000-0 +66075-4 0  9999
2  5554 074.0286 049.9169 0053261 329.7853 159.8079 12.34272923151966
Source of the keplerian elements: AFSPC